Regional Weather Roundup
Issued by NWS Cleveland, OH

Home | Current Version | Previous Version | Graphics & Text | Print | Product List | Glossary On
Versions: 1 2 3 4 5 6 7 8 9 10 11 12 13 14 15 16 17 18 19 20 21 22 23 24 25 26 27 28 29 30 31 32 33 34 35 36 37 38 39 40 41 42 43 44 45 46 47 48 49 50
000
ASUS41 KCLE 220900
RWRCLE
OHIO REGIONAL WEATHER ROUNDUP
NATIONAL WEATHER SERVICE WILMINGTON, OH
400 AM EST MON DEC 22 2014

NOTE: "FAIR" INDICATES FEW OR NO CLOUDS BELOW 12,000 FEET WITH NO
SIGNIFICANT WEATHER AND/OR OBSTRUCTIONS TO VISIBILITY.

OHZ001>008-015>018-024>027-034-035-043-044-221000-
   NORTHWEST OHIO

CITY           SKY/WX    TMP DP  RH WIND       PRES   REMARKS
DEFIANCE       PTCLDY    26  21  81 E7        30.10F WCI  18
FINDLAY        MOCLDY    26  21  81 E7        30.08F WCI  18
TOLEDO EXPRESS MOCLDY    24  21  88 CALM      30.11F FOG
TOLEDO METCALF MOCLDY    24  20  84 E3        30.12F FOG
LIMA           MOCLDY    28  22  78 SE9       30.07F HAZE    WCI  19
$$

OHZ009>014-019>023-028>033-038-089-221000-
   NORTHEAST OHIO

CITY           SKY/WX    TMP DP  RH WIND       PRES   REMARKS
CLE-HOPKINS    MOCLDY    26  20  77 SE3       30.15F
CLE-LAKEFRONT  PTCLDY    29  21  72 SE8       30.13F WCI  21
CUY CO. ARPT   NOT AVBL
LORAIN-ELYRIA  PTCLDY    24  20  84 SE3       30.12F
ASHTABULA      CLEAR     24  20  84 E3        30.15F
AKRON-CANTON   PTCLDY    24  19  81 E6        30.10F HAZE    WCI  17
WOOSTER        NOT AVBL
MANSFIELD      PTCLDY    23  20  88 SE8       30.08F WCI  14
YOUNGSTOWN     PTCLDY    23  20  88 E8        30.12F WCI  14
$$

OHZ042-051>053-060>062-070>072-077>081-221000-
  SOUTHWEST OHIO

CITY           SKY/WX    TMP DP  RH WIND       PRES   REMARKS
CINC-COVINGTON CLOUDY    33  25  72 SE7       30.03F WCI  27
CINC-LUNKEN    CLOUDY    28  26  92 NE3       30.07F
HAMILTON       CLOUDY    27  25  92 E3        30.06F
DAYTON         NOT AVBL
WRIGHT-PAT AFB NOT AVBL
DAYTON GENERAL PTCLDY    29  24  82 E9        30.03F WCI  20
WILMINGTON     MOCLDY    26  22  84 E6        30.04F FOG     WCI  19
$$

OHZ036-037-039>041-045>050-054>059-063>069-073>076-082>088-221000-
  CENTRAL AND SOUTHEAST OHIO

CITY           SKY/WX    TMP DP  RH WIND       PRES   REMARKS
COLUMBUS       PTCLDY    26  21  81 CALM      30.08F
OSU AIRPORT    PTCLDY    23  21  92 NE3       30.08F FOG
BOLTON FIELD   NOT AVBL
RICKENBACK AFB NOT AVBL
NEWARK         CLEAR     25  20  81 CALM      30.09F HAZE
MARION         MOCLDY    26  21  81 SE8       30.08F HAZE    WCI  18
LANCASTER      CLEAR     24  19  81 CALM      30.08F HAZE
ZANESVILLE     CLEAR     22  18  85 CALM      30.09F FOG
NEW PHILLY     CLEAR     20  16  84 CALM      30.12F
$$



USA.gov is the U.S. government's official web portal to all federal, state and local government web resources and services.